Miscellaneous Local Product
Issued by NWS North Platte, NE

Home | Current Version | Previous Version | Graphics & Text | Print | Product List | Glossary On
Versions: 1 2 3 4 5 6 7 8 9 10 11 12 13 14 15 16 17 18 19 20 21 22 23 24 25 26 27 28 29 30 31 32 33 34 35 36 37 38 39 40 41 42 43 44 45 46 47 48 49 50
000
AXUS43 KLBF 292310
MISLBF


WESTERN AND NORTH CENTRAL NEBRASKA HOURLY WEATHER ROUNDUP
NATIONAL WEATHER SERVICE NORTH PLATTE NE
600 PM CDT TUE JUL 29 2014

***STATIONS NOT REPORTING VARIABLES SUCH AS SKY/WEATHER OR
PRESSURE ARE PROVIDED BY THE NEBRASKA DEPARTMENT OF
ROADS...RAWS...AND APRS NETWORKS...AND ARE NOT UNDER
NATIONAL WEATHER SERVICE QUALITY CONTROL***

...OBSERVATIONS IN AND NEAR THE EASTERN PANHANDLE OF NEBRASKA...

CITY           SKY/WX    TMP DP  RH WIND       PRES   REMARKS
PINE RIDGE     CLOUDY    70  55  59 E8        30.21F
CHADRON        PTSUNNY   77  55  46 NE13      30.19S
ALLIANCE       CLOUDY    76  56  49 SE15      30.19R
SIDNEY         CLOUDY    80  56  43 E13       30.17R
WHITECLAY        N/A     71  52  50 E5          N/A
RUSHVILLE        N/A     75  50  41 E18         N/A
GORDON           N/A     73  56  54 NE14        N/A
CRESCENT LAKE    N/A     65  62  89 E7G22       N/A
LISCO            N/A     74  55  52 N26         N/A
BIG SPRINGS      N/A     82  63  52 E9          N/A
$$

...OBSERVATIONS IN NORTH CENTRAL NEBRASKA...

CITY           SKY/WX    TMP DP  RH WIND       PRES   REMARKS
VALENTINE      CLOUDY    74  52  46 N9        30.19F
THEDFORD       PTSUNNY   78  58  49 NE10      30.18F
AINSWORTH      CLOUDY    73  55  54 NE3       30.18F
O`NEILL        CLOUDY    77  51  40 W5        30.17S
ORD            MOSUNNY   77  58  51 E5        30.14F
BROKEN BOW     MOSUNNY   79  58  48 E3        30.16F
BROWNLEE         N/A     79  48  33 NE7         N/A
SPRINGVIEW       N/A     76  55  47 CALM        N/A
DUNNING          N/A     79  57  47 E5          N/A
ROSE             N/A     77  61  56 N3          N/A
NEWPORT          N/A     78  55  45 CALM        N/A
SARGENT          N/A     78  59  52 CALM        N/A
COMSTOCK         N/A     82  62  51 CALM        N/A
CHAMBERS         N/A     79  53  39 W3          N/A
EWING            N/A     74  61  63 E3          N/A
$$

...OBSERVATIONS IN SOUTHWEST NEBRASKA AND FAR NORTHEAST COLORADO...

CITY           SKY/WX    TMP DP  RH WIND       PRES   REMARKS
WRAY             N/A     87  52  30 E17G24    30.08F
HOLYOKE        FAIR      82  61  47 E17G25    30.12S
IMPERIAL       MOSUNNY   84  59  42 E18       30.10F
OGALLALA       PTSUNNY   79  60  51 E15G22    30.13F
NORTH PLATTE   CLOUDY    78  60  53 E13       30.13F
MCCOOK         MOSUNNY   85  58  39 E17       30.09F
LEXINGTON      MOSUNNY   78  62  57 E9        30.14F
PAXTON           N/A     81  65  57 E3          N/A
SUTHERLAND       N/A     82  64  54 E7          N/A
BRADY            N/A     78  61  55 MISG        N/A
CALLAWAY         N/A     79  66  64 E9          N/A
$$

...SOME WEATHER OBSERVATIONS FROM AROUND THE REGION...

CITY           SKY/WX    TMP DP  RH WIND       PRES   REMARKS
DENVER         RAIN      65  58  78 N6        30.23R
LARAMIE        CLOUDY    59  53  80 SE3       30.35R
CHEYENNE       LGT RAIN  63  60  90 NW7       30.28R
SCOTTSBLUFF    PTSUNNY   74  60  61 NE21G30   30.16F
RAPID CITY     PTSUNNY   71  54  54 S7        30.22F
PIERRE         SUNNY     82  50  32 N10       30.13F
WINNER         FAIR      82  47  29 NE7       30.16F
SIOUX FALLS    MOSUNNY   75  53  46 N7        30.14F
OMAHA          PTSUNNY   78  54  43 CALM      30.13F
GRAND ISLAND   MOSUNNY   78  58  49 SE6       30.16F
KANSAS CITY    MOSUNNY   81  58  45 N8        30.11F
WICHITA        MOSUNNY   87  61  41 E14       30.06F
HAYS           MOSUNNY   88  61  40 SE13      30.07F
LIBERAL        PTSUNNY   77  64  65 SE16      30.12F
GOODLAND       CLOUDY    82  59  45 SE14      30.09F
$$



USA.gov is the U.S. government's official web portal to all federal, state and local government web resources and services.